Wind_Speed
6 7 7 8 9 10 11 12 12 12 10 10 10 9 9 8 7 6 6 6 5 5 5 5 6 6 6 6 6 7 7 8 8 8 9 10 10 11 12 13 12 11 9
4 8 7 7 9 9 11 11 11 11 10 9 8 8 7 6 5 4 3 2 2 2 2 2 2 2 2 3 3 4 4 4 5 5 5 6 8 9 9 10 11 12 9
5 7 6 4 8 9 9 9 9 9 8 7 5 5 4 3 2 1 1 2 3 4 4 4 4 4 3 3 3 3 3 2 1 1 3 3 8 8 9 9 10 12 10
5 7 4 5 7 7 7 7 6 5 4 3 2 1 1 2 3 3 4 5 5 5 5 6 6 7 7 6 4 4 3 3 3 3 1 6 7 6 6 7 8 9 9
6 9 6 7 7 6 6 6 5 5 3 2 1 1 2 2 3 4 5 5 5 6 6 6 7 7 7 6 6 6 4 3 4 5 5 4 2 3 3 4 5 6 7
5 8 8 9 8 8 7 7 6 6 4 3 3 3 3 4 5 6 6 7 6 6 7 7 7 8 8 8 7 6 6 6 6 5 5 5 4 3 3 3 3 3 4
2 7 9 10 9 9 9 8 7 6 5 5 5 5 5 6 7 7 7 8 8 8 8 8 8 8 9 9 9 8 7 7 8 7 8 7 6 4 4 4 4 3 3
3 7 8 9 8 8 8 8 8 8 8 8 7 7 7 8 9 9 10 10 11 11 11 11 11 10 10 11 10 10 10 9 9 9 7 10 5 4 4 5 5 5 3
3 10 10 10 10 9 10 10 9 9 10 10 10 11 11 11 12 13 13 14 15 15 15 15 15 14 14 13 13 13 12 12 11 12 12 12 8 6 6 6 6 5 5
7 8 11 11 11 12 12 12 12 12 13 13 14 14 15 15 16 16 17 18 19 19 20 20 19 19 19 18 18 17 17 15 14 14 15 16 11 8 8 9 8 7 6
12 9 11 13 12 13 14 14 15 16 17 17 18 18 19 19 20 21 20 21 20 22 22 23 23 22 22 22 21 22 22 20 19 17 17 21 17 10 12 12 12 11 9
16 13 12 13 12 11 12 14 16 18 20 20 20 20 20 21 23 24 24 23 22 24 23 23 23 24 25 23 24 25 24 24 23 23 22 23 21 16 17 17 16 15 13
18 15 13 15 15 14 15 16 17 20 21 22 22 22 22 23 24 25 25 24 24 23 23 24 22 23 26 25 24 23 24 24 23 22 21 24 25 24 21 22 21 19 18
12 16 15 15 16 17 17 19 20 21 22 23 24 25 25 26 26 27 28 30 30 28 27 26 26 31 31 30 27 27 26 27 27 22 25 25 28 26 23 25 25 24 23
11 14 13 17 17 18 20 22 24 25 26 26 26 26 28 30 31 30 29 30 31 29 28 31 30 32 31 31 30 29 28 26 28 29 29 30 27 28 26 26 28 28 27
24 22 21 22 20 22 25 27 28 29 30 30 29 28 30 32 34 32 33 31 33 33 32 33 35 34 33 30 26 26 25 26 28 30 30 30 30 27 26 32 30 32 32
26 22 21 21 21 22 24 26 28 30 33 34 33 33 34 35 38 38 38 38 35 36 36 37 37 38 34 29 29 29 30 30 29 30 31 33 33 32 33 34 32 32 33
29 22 21 27 26 24 27 27 30 27 26 28 29 31 33 35 35 37 36 36 36 37 36 36 36 33 31 33 34 33 33 33 34 32 32 34 36 37 37 38 38 36 35
26 23 25 30 33 38 42 34 40 38 35 34 34 32 31 33 34 33 33 32 32 33 34 34 32 34 35 35 35 35 34 35 36 38 40 40 38 38 41 41 41 40 37
19 21 25 27 32 39 32 37 37 33 41 43 43 43 36 32 31 29 31 33 34 34 34 38 35 36 35 37 37 37 35 35 38 42 44 43 41 39 39 40 43 43 41
19 23 26 29 30 33 32 32 30 31 32 33 37 37 36 45 46 50 51 52 47 47 46 39 37 39 38 40 43 43 43 43 45 47 45 43 41 36 37 40 41 42 43
17 19 22 24 27 30 31 34 34 33 33 31 32 29 33 35 40 43 46 42 37 37 37 39 39 43 47 47 49 49 60 57 58 46 44 41 36 33 34 37 39 40 41
19 24 28 30 31 31 32 31 31 31 31 29 29 32 37 40 36 37 42 44 50 50 53 53 52 53 57 55 49 44 41 40 36 36 40 38 35 31 31 33 35 35 34
26 30 37 36 30 31 32 31 29 28 29 31 31 33 40 41 40 38 35 35 34 42 50 46 37 43 34 30 31 32 34 36 37 35 35 37 35 31 29 31 31 33 31
31 33 40 34 33 31 31 31 28 29 32 34 34 39 40 41 40 38 34 33 28 25 27 27 29 31 32 33 33 33 34 34 32 34 35 30 33 34 33 32 30 28 26
39 44 35 32 34 30 30 29 29 30 33 36 39 39 40 42 39 40 35 34 30 27 28 30 31 31 34 35 34 34 33 32 31 33 36 35 32 28 31 27 26 25 25
Wind_Direction
168 176 164 160 151 139 132 131 125 122 120 119 120 120 119 122 117 113 105 101 94 82 72 62 59 56 52 52 55 53 53 53 48 48 48 47 45 46 47 48 48 56 61
184 187 175 184 170 157 149 144 138 136 140 140 137 137 137 134 129 121 111 97 86 77 60 44 16 22 25 28 34 45 52 51 50 54 58 52 52 47 48 49 50 55 57
222 195 175 216 189 172 164 159 156 151 150 145 141 140 136 126 103 66 2 346 338 344 340 333 334 330 338 336 342 354 9 28 35 79 77 75 65 49 40 40 45 52 52
202 196 205 211 201 189 177 170 162 155 154 146 148 127 26 5 341 326 329 330 330 324 326 332 333 334 330 325 325 324 325 329 320 314 343 89 75 60 50 41 41 47 52
196 195 217 198 196 208 194 187 184 173 183 182 273 311 316 318 315 314 311 308 315 316 323 326 322 320 315 317 318 315 305 294 283 300 330 19 99 73 64 52 53 45 53
221 191 208 197 204 203 196 192 194 188 199 217 228 249 270 284 292 296 301 306 308 311 312 314 313 314 314 310 307 304 300 293 286 286 288 342 354 355 10 9 22 33 43
359 198 210 206 205 194 197 201 204 206 217 232 247 256 268 279 285 289 293 296 298 298 301 303 303 304 306 307 309 305 301 300 303 303 281 277 283 312 334 333 346 355 10
303 213 218 219 221 220 216 220 222 224 231 238 247 254 263 275 282 282 285 289 292 293 292 290 290 290 291 295 296 295 293 291 286 285 288 297 242 282 314 314 323 326 326
311 245 224 222 229 232 234 240 248 256 261 264 267 269 270 273 273 277 282 283 282 284 286 287 290 291 289 287 286 285 282 282 285 290 295 287 305 296 300 299 302 309 317
276 256 247 238 233 245 252 256 257 259 264 269 272 274 275 274 277 279 280 282 286 290 291 291 289 289 289 288 287 284 281 277 276 277 284 282 288 279 284 286 284 280 285
261 241 239 250 252 257 262 266 264 266 264 264 264 266 269 273 273 275 277 281 284 285 287 286 286 284 284 286 285 286 283 284 277 272 270 275 282 273 272 272 277 276 269
239 234 234 244 257 263 260 259 269 267 267 273 280 281 282 280 280 278 278 275 280 280 281 281 282 287 288 288 286 283 282 279 280 277 269 272 275 270 266 267 267 266 266
219 235 233 247 253 258 262 269 271 273 278 276 276 276 278 277 278 277 278 282 280 278 275 278 283 285 283 286 291 289 277 277 274 268 271 276 280 278 269 270 269 267 264
181 221 244 255 258 266 270 270 273 272 277 276 276 274 274 276 271 271 272 271 274 274 279 275 274 277 283 284 283 286 283 279 279 267 277 269 272 270 270 268 269 269 266
269 284 270 267 269 273 275 275 275 277 277 273 273 275 276 274 272 272 271 273 274 274 272 276 276 277 278 272 266 266 265 269 272 271 264 269 267 275 275 269 264 262 261
287 287 282 274 275 281 278 275 275 275 276 279 277 274 270 268 268 270 271 270 273 276 274 271 277 277 276 269 264 267 266 263 263 266 269 269 267 265 268 268 263 260 260
296 302 298 293 293 288 284 282 281 280 279 276 276 272 270 268 269 269 269 271 273 272 268 268 271 274 268 261 266 270 273 273 270 272 269 267 266 265 265 267 266 264 262
288 291 299 309 299 290 291 304 301 294 293 291 290 288 285 282 278 274 273 272 270 269 268 268 266 261 256 263 271 276 279 280 281 280 277 274 271 266 261 262 264 264 262
293 293 285 282 278 288 286 291 304 296 296 298 297 297 295 293 289 283 281 276 271 269 269 265 263 264 265 267 271 274 276 279 284 285 286 284 275 267 264 262 260 259 259
286 284 289 287 285 285 284 273 276 285 287 294 294 294 294 288 281 283 283 283 276 267 263 261 267 268 271 271 269 269 275 283 288 288 286 282 277 273 265 257 256 258 257
297 294 292 291 292 290 288 286 287 288 283 281 280 282 284 280 272 275 275 267 273 272 270 269 262 269 270 277 275 271 274 281 284 281 282 280 274 267 264 264 260 256 255
311 316 319 318 313 308 302 296 293 292 290 289 286 283 289 298 301 290 282 279 278 275 271 270 272 270 271 280 288 285 276 281 276 283 278 275 274 270 262 260 260 258 254
325 335 332 326 316 311 307 303 296 293 294 292 280 280 290 302 299 307 285 277 276 272 270 265 272 275 270 279 289 285 284 282 282 281 279 276 275 272 266 266 267 265 262
318 326 331 325 317 313 306 302 300 296 289 282 276 286 296 305 312 315 303 296 296 284 281 282 291 280 275 274 289 293 290 285 279 273 268 270 271 269 264 259 257 262 260
326 325 327 323 320 315 308 303 298 290 286 284 283 291 300 303 310 312 316 307 303 302 303 301 296 297 295 292 287 284 281 280 279 278 270 257 261 263 264 265 265 261 257
331 322 324 321 320 311 306 298 292 290 286 286 290 293 297 303 316 313 311 308 299 293 289 285 287 290 293 288 285 284 284 281 277 277 279 276 269 262 265 264 259 256 252
Height
3183 3184 3185 3186 3185 3185 3185 3186 3187 3187 3189 3189 3190 3191 3192 3193 3193 3194 3195 3195 3195 3196 3196 3196 3196 3196 3196 3196 3196 3196 3196 3196 3196 3195 3194 3193 3194 3193 3192 3192 3192 3190 3190
3182 3183 3184 3185 3185 3186 3186 3187 3187 3188 3189 3190 3191 3192 3193 3194 3195 3196 3196 3197 3197 3197 3197 3197 3197 3198 3198 3198 3198 3198 3197 3196 3196 3196 3195 3195 3195 3195 3195 3195 3194 3192 3191
3182 3184 3185 3185 3185 3186 3187 3188 3189 3189 3190 3191 3192 3193 3194 3195 3196 3197 3197 3198 3198 3198 3198 3199 3198 3198 3197 3197 3198 3197 3197 3196 3196 3195 3195 3195 3195 3196 3196 3195 3193 3192 3192
3181 3184 3184 3184 3185 3186 3187 3188 3189 3191 3192 3192 3193 3193 3194 3195 3196 3197 3197 3197 3198 3198 3198 3198 3198 3197 3198 3198 3197 3196 3196 3196 3196 3195 3194 3193 3194 3195 3194 3195 3194 3193 3192
3179 3181 3182 3183 3185 3185 3186 3187 3188 3189 3191 3192 3193 3193 3193 3194 3194 3195 3195 3196 3196 3197 3196 3197 3197 3197 3197 3197 3197 3197 3196 3195 3195 3195 3194 3192 3194 3194 3194 3193 3193 3193 3192
3178 3180 3181 3182 3184 3185 3186 3187 3188 3188 3190 3191 3191 3192 3192 3192 3193 3194 3194 3195 3195 3195 3195 3195 3196 3196 3196 3196 3196 3196 3196 3195 3194 3193 3193 3192 3194 3194 3194 3194 3193 3193 3193
3179 3180 3181 3183 3183 3184 3185 3186 3187 3188 3188 3190 3191 3191 3191 3191 3192 3192 3192 3193 3193 3194 3194 3194 3194 3194 3194 3195 3195 3195 3195 3195 3195 3194 3192 3192 3193 3193 3193 3193 3193 3193 3193
3176 3178 3180 3183 3184 3185 3185 3185 3186 3186 3187 3188 3188 3189 3190 3191 3191 3191 3191 3191 3191 3191 3192 3192 3192 3192 3192 3192 3193 3193 3194 3194 3193 3192 3191 3191 3193 3193 3192 3192 3193 3192 3192
3178 3178 3178 3179 3182 3184 3185 3185 3186 3188 3188 3188 3189 3189 3189 3190 3189 3189 3189 3189 3188 3189 3189 3190 3190 3190 3190 3190 3190 3190 3190 3191 3191 3190 3189 3188 3190 3191 3191 3191 3191 3191 3192
3178 3180 3181 3179 3178 3182 3184 3185 3185 3186 3186 3187 3187 3188 3189 3188 3189 3188 3188 3187 3187 3187 3186 3187 3187 3187 3188 3188 3187 3187 3188 3188 3188 3188 3188 3186 3188 3189 3190 3189 3190 3189 3190
3174 3175 3177 3180 3178 3177 3181 3182 3183 3184 3184 3184 3184 3184 3185 3185 3185 3184 3185 3184 3183 3183 3184 3183 3183 3183 3184 3184 3184 3184 3184 3185 3185 3186 3185 3184 3184 3186 3187 3187 3187 3188 3188
3168 3170 3173 3175 3178 3174 3177 3180 3181 3180 3181 3181 3182 3183 3183 3183 3182 3182 3181 3181 3179 3178 3178 3178 3178 3178 3179 3179 3180 3179 3179 3179 3180 3180 3181 3180 3181 3182 3182 3183 3184 3185 3186
3160 3169 3166 3172 3173 3171 3173 3176 3177 3177 3179 3179 3178 3179 3179 3179 3179 3178 3177 3177 3175 3173 3174 3173 3174 3174 3172 3173 3173 3173 3173 3172 3173 3174 3173 3174 3176 3178 3179 3179 3181 3182 3182
3148 3163 3165 3170 3172 3168 3169 3172 3173 3173 3174 3173 3174 3174 3174 3174 3174 3173 3172 3169 3170 3169 3170 3168 3169 3168 3168 3167 3166 3167 3167 3167 3166 3154 3167 3168 3168 3171 3174 3175 3176 3177 3178
3164 3165 3166 3169 3169 3164 3166 3170 3171 3171 3169 3169 3168 3169 3168 3168 3167 3166 3166 3165 3164 3164 3163 3163 3163 3162 3162 3162 3162 3161 3162 3162 3162 3162 3162 3160 3160 3163 3167 3168 3169 3170 3172
3165 3162 3161 3166 3162 3159 3163 3166 3166 3166 3165 3163 3162 3163 3162 3162 3161 3159 3159 3159 3158 3158 3158 3157 3156 3156 3156 3155 3155 3155 3154 3155 3155 3155 3155 3156 3156 3158 3159 3160 3161 3163 3165
3158 3159 3160 3161 3155 3157 3163 3162 3162 3161 3162 3160 3158 3157 3156 3155 3155 3154 3153 3151 3152 3151 3149 3149 3148 3148 3149 3148 3148 3148 3149 3148 3149 3149 3148 3148 3149 3151 3152 3153 3153 3155 3157
3154 3153 3151 3149 3153 3156 3158 3158 3157 3156 3156 3155 3154 3153 3153 3151 3149 3147 3146 3145 3143 3142 3141 3141 3140 3139 3140 3140 3141 3140 3140 3139 3139 3140 3141 3141 3141 3142 3143 3144 3144 3146 3147
3150 3149 3148 3149 3151 3153 3154 3151 3152 3152 3151 3150 3149 3148 3147 3146 3144 3143 3141 3139 3137 3135 3134 3133 3133 3132 3132 3131 3130 3131 3131 3131 3131 3130 3130 3131 3131 3132 3133 3134 3135 3136 3137
3150 3149 3149 3147 3146 3146 3145 3146 3144 3142 3143 3143 3142 3141 3141 3140 3138 3136 3133 3132 3132 3130 3127 3126 3125 3124 3123 3121 3120 3120 3121 3122 3122 3119 3119 3120 3119 3120 3120 3122 3122 3124 3127
3148 3147 3145 3144 3143 3141 3139 3137 3137 3136 3135 3133 3133 3133 3131 3128 3127 3126 3125 3121 3121 3121 3120 3116 3114 3116 3115 3111 3110 3109 3111 3112 3111 3110 3111 3109 3108 3109 3107 3108 3111 3112 3115
3144 3143 3142 3140 3138 3136 3134 3132 3130 3129 3128 3128 3127 3126 3122 3121 3118 3115 3112 3111 3111 3109 3108 3106 3106 3107 3106 3103 3101 3099 3099 3104 3099 3099 3097 3098 3098 3098 3097 3096 3097 3100 3102
3142 3140 3137 3137 3134 3131 3127 3125 3124 3122 3122 3121 3119 3118 3117 3115 3114 3109 3105 3103 3101 3098 3096 3096 3096 3094 3093 3095 3092 3091 3089 3088 3087 3085 3085 3086 3086 3088 3090 3089 3089 3089 3091
3139 3137 3133 3131 3129 3125 3122 3119 3118 3117 3116 3115 3114 3112 3110 3107 3103 3100 3097 3094 3089 3087 3088 3088 3083 3084 3082 3084 3084 3082 3079 3079 3077 3078 3077 3077 3078 3079 3079 3078 3080 3080 3083
3133 3132 3129 3126 3123 3120 3117 3115 3113 3112 3111 3110 3109 3107 3105 3101 3098 3094 3089 3086 3082 3081 3080 3079 3078 3077 3075 3075 3075 3074 3074 3072 3070 3066 3067 3070 3069 3069 3068 3069 3070 3072 3074
3127 3124 3125 3122 3117 3115 3113 3110 3108 3107 3106 3105 3103 3101 3098 3095 3091 3087 3084 3081 3078 3077 3075 3073 3070 3069 3069 3067 3066 3064 3062 3061 3061 3058 3055 3057 3059 3062 3059 3062 3062 3063 3065